Renton, WA

8:21 PM PST on February 24, 2018 (GMT -0800)
Renton Municipal

Weather History for KRNT - July, 2013

Change the Weather History Date:

Wednesday, July 17, 2013

  Actual Average Record
Temperature  
Mean Temperature 66 °F -  
Max Temperature 71 °F 75 °F 84 °F (1998)
Min Temperature 60 °F 57 °F 51 °F (2010)
Cooling Degree Days 1    
Growing Degree Days 16 (Base 50)    
Moisture  
Dew Point 56 °F    
Average Humidity 70    
Maximum Humidity 84    
Minimum Humidity 57    
Precipitation  
Precipitation 0.02 in - - ()
Sea Level Pressure  
Sea Level Pressure 30.11 in    
Wind  
Wind Speed 5 mph (South)    
Max Wind Speed 10 mph    
Max Gust Speed -    
Visibility 10 miles    
Events Rain , Thunderstorm    
Averages and records for this station are not official NWS values.
T = Trace of Precipitation, MM = Missing Value Source: NWS Daily Summary

Daily Weather History Graph

Daily Weather History Graph

Search for Another Location

Airport or City:

Trip Planner

Search our weather history database for the weather conditions in past years. The results will help you decide how hot, cold, wet, or windy it might be!

Date:

Astronomy

Jul. 17, 2013 Rise Set
Actual Time 5:29 AM PDT 8:59 PM PDT
Civil Twilight 4:51 AM PDT 9:38 PM PDT
Nautical Twilight 4:00 AM PDT 10:28 PM PDT
Astronomical Twilight 2:51 AM PDT 11:36 PM PDT
Moon 3:50 PM PDT (7/17) 12:48 AM PDT (7/17)
Length of Visible Light 16h 46m
Length of Day
15h 30m
Waxing Gibbous, 68% of the Moon is Illuminated
Jul 17
Waxing Gibbous
Jul 22
Full
Jul 29
Last Quarter
Aug 6
New
Aug 14
First Quarter

Hourly Weather History & Observations

Time (PDT) Temp. Dew Point Humidity Pressure Visibility Wind Dir Wind Speed Gust Speed Precip Events Conditions
12:53 AM 70.0 °F 61.0 °F 73% 29.91 in 10.0 mi ESE 3.5 mph - N/A   Clear
1:53 AM 70.0 °F 54.0 °F 57% 29.95 in 10.0 mi South 9.2 mph - N/A   Clear
2:20 AM 66.2 °F 57.2 °F 73% 29.95 in 5.0 mi Variable 3.5 mph - 0.02 in Rain , Thunderstorm Rain
2:37 AM 64.4 °F 59.0 °F 83% 29.95 in 10.0 mi Calm Calm - 0.02 in Rain Light Rain
2:53 AM 64.9 °F 57.9 °F 78% 29.99 in 10.0 mi SE 5.8 mph - 0.02 in Rain Light Rain
3:53 AM 64.0 °F 57.0 °F 78% 30.02 in 10.0 mi South 8.1 mph - 0.00 in   Clear
4:53 AM 62.1 °F 57.0 °F 84% 30.05 in 10.0 mi SSE 10.4 mph - N/A   Partly Cloudy
5:53 AM 62.1 °F 55.9 °F 80% 30.07 in 9.0 mi SE 5.8 mph - N/A   Mostly Cloudy
6:53 AM 62.1 °F 55.0 °F 78% 30.07 in 10.0 mi SSW 6.9 mph - N/A   Mostly Cloudy
7:53 AM 62.1 °F 55.9 °F 80% 30.11 in 10.0 mi South 5.8 mph - N/A   Overcast
8:53 AM 63.0 °F 57.0 °F 81% 30.12 in 9.0 mi Variable 3.5 mph - N/A   Overcast
9:53 AM 64.9 °F 55.9 °F 73% 30.13 in 10.0 mi South 5.8 mph - N/A   Overcast
10:53 AM 64.9 °F 55.0 °F 70% 30.16 in 10.0 mi Variable 5.8 mph - N/A   Overcast
11:53 AM 66.0 °F 55.0 °F 68% 30.17 in 10.0 mi Variable 6.9 mph - N/A   Overcast
12:53 PM 66.9 °F 55.0 °F 66% 30.18 in 10.0 mi South 6.9 mph - N/A   Overcast
1:53 PM 69.1 °F 55.0 °F 61% 30.18 in 10.0 mi South 8.1 mph - N/A   Overcast
2:53 PM 70.0 °F 55.0 °F 59% 30.18 in 10.0 mi Variable 4.6 mph - N/A   Overcast
3:53 PM 69.1 °F 55.0 °F 61% 30.18 in 10.0 mi Variable 4.6 mph - N/A   Overcast
4:53 PM 69.1 °F 55.0 °F 61% 30.18 in 10.0 mi SW 5.8 mph - N/A   Overcast
5:53 PM 70.0 °F 54.0 °F 57% 30.18 in 10.0 mi SSW 3.5 mph - N/A   Overcast
6:53 PM 70.0 °F 54.0 °F 57% 30.18 in 10.0 mi Variable 3.5 mph - N/A   Overcast
7:53 PM 70.0 °F 54.0 °F 57% 30.18 in 10.0 mi SW 4.6 mph - N/A   Mostly Cloudy
8:53 PM 66.9 °F 54.0 °F 63% 30.19 in 10.0 mi SSW 3.5 mph - N/A   Clear
9:53 PM 63.0 °F 55.0 °F 75% 30.21 in 10.0 mi Calm Calm - N/A   Clear
10:53 PM 63.0 °F 54.0 °F 72% 30.20 in 10.0 mi Calm Calm - N/A   Clear
11:53 PM 60.1 °F 55.0 °F 83% 30.21 in 10.0 mi Calm Calm - N/A   Clear